Weather in Cherbi

Russia / Tyva Republic     51°53′21″N   94°35′21″E
temp.,
°C
wind,
m/s
gust,
m/s
humid.,
%
clouds,
%
prec.,
mm/h
press.,
hPa
HPBL,
m
27 july, tue
tue2701:00+15nnw009080 2.7 100511
04:00+13nne119210 0.1 100511
07:00+16wnw118283 0.1 1005188
10:00+19w1168100 0.7 1005594
13:00+23wnw115261 2.4 10031226
16:00+24nne234732 1.6 10011588
19:00+22ne23530 1.9 1001601
22:00+16ne33753 0.1 100334
28 july, wed
wed2801:00+14nne328235 0.2 100331
04:00+14n2285100 0.0 100346
07:00+15nw228299 0.1 1003207
10:00+13wnw1298100 7.6 1004166
13:00+16wnw228199 10.8 1003603
16:00+18nw556958 0.5 1003948
19:00+16n56667 0.5 1005676
22:00+10n33860 0.0 100760
29 july, thu
thu2901:00+8n33875 0.0 100958
04:00+7n33860 0.0 101040
07:00+10nnw22710 0.0 1010231
10:00+15wnw32520 0.0 1009964
13:00+19w33390 0.0 10071430
16:00+21w33330 0.0 10061659
19:00+19w234495 0.0 1006241
22:00+13ne33605 0.0 100831
30 july, fri
fri3001:00+11ne3364100 0.0 100936
04:00+11nne226795 0.0 100921
07:00+14nnw1159100 0.0 1009116
10:00+18w324896 0.0 1009799
13:00+20nw5547100 0.0 10081191
16:00+22nw544268 0.0 10071467
19:00+19nnw4554100 0.1 1008541
22:00+14n347483 0.3 101190
31 july, sat
sat3101:00+13n3376100 0.4 101196
04:00+12n2383100 0.4 1013156
07:00+11nnw2389100 1.2 1014160
10:00+12nnw2288100 0.8 1014215
13:00+12nne2386100 5.1 1014266
16:00+17nw134997 0.1 10131433
19:00+17wnw235985 0.3 1013143
22:00+11ne2281100 0.6 101615